{"data":{"norad_id":39731,"intl_designator":"2014-024A","name":"KAZEOSAT 1","alt_names":[],"object_type":"PAYLOAD","status":"ACTIVE","operator":null,"country":"KAZ","launch_date":"2014-04-30","launch_site_code":"FRGUI","launch_vehicle":null,"mission":null,"orbit_class":"UNKNOWN","rcs_meters":4.2216,"size_class":null,"mass_kg":null,"dimensions":null,"purposes":["earth_obs"],"wikipedia_slug":null,"has_3d_model":false,"image_url":null,"decayed_at":null,"tle_current":{"epoch":"2026-09-20T05:15:33.454080Z","epoch_age_seconds":38659,"freshness":"FRESH","line1":"1 39731U 14024A   26263.21913720  .00000106  00000+0  45111-4 0  9990","line2":"2 39731  98.3122 333.2588 0001438  88.7244 271.4110 14.42065195652254","mean_motion":14.42065195,"eccentricity":0.0001438,"inclination_deg":98.3122,"raan_deg":333.2588,"arg_perigee_deg":88.7244,"mean_anomaly_deg":271.411,"bstar":4.5111e-5,"rev_number":65225,"period_min":99.856789068403,"perigee_km":750.65793212794,"apogee_km":752.70846841754,"semimajor_km":7129.8202002727,"source":"CELESTRAK","updated_at":"2026-09-20T09:00:33.896270Z"}}}